Tracking 19563 objects as of 20-Mar-2019
HD Live streaming from Space Station
objects crossing your sky now

ATLAS AGENA R/B(2)

Track ATLAS AGENA R/B(2) now!


NORAD ID: 15422
Int'l Code: 1977-038C
Perigee: 28,944.5 km
Apogee: 41,508.6 km
Inclination: 10.2 °
Period: 1,407.2 minutes
Semi major axis: 41597 km
RCS: Unknown
Launch date: May 23, 1977
Source: United States (US)
Launch site: AIR FORCE EASTERN TEST RANGE (AFETR)

Note: This is a ROCKET BODY
aabbcc
Your satellite tracking list
Your tracking list is empty




NASA's NSSDC Master Catalog

Two Line Element Set (TLE):
1 15422U 77038C   19048.17848870 0.00000000  00000-0  00000-0 0    07
2 15422  10.2459 341.0106 1510199 119.7427 256.1275  1.02329551    05
Source of the keplerian elements: McCants